Henderson, KY

8:32 PM CDT on July 22, 2019 (GMT -0500)
Henderson City-County

Weather History for KEHR - May, 2019

Change the Weather History Date:

Monday, May 6, 2019

  Actual Average Record
Temperature  
Mean Temperature 62 °F -  
Max Temperature 75 °F 75 °F 91 °F (1940)
Min Temperature 50 °F 53 °F 35 °F (1968)
Degree Days  
Heating Degree Days 2    
Growing Degree Days 12 (Base 50)    
Moisture  
Dew Point 53 °F    
Average Humidity 70    
Maximum Humidity 97    
Minimum Humidity 40    
Precipitation  
Precipitation 0.00 in - - ()
Sea Level Pressure  
Sea Level Pressure 30.07 in    
Wind  
Wind Speed 2 mph (SW)    
Max Wind Speed 7 mph    
Max Gust Speed -    
Visibility 10 miles    
Events      
Averages and records for this station are not official NWS values.
T = Trace of Precipitation, MM = Missing Value Source: NWS Daily Summary

Daily Weather History Graph

Daily Weather History Graph

Search for Another Location

Airport or City:

Astronomy

May. 06, 2019 Rise Set
Actual Time 5:49 AM CDT 7:45 PM CDT
Civil Twilight 5:20 AM CDT 8:14 PM CDT
Nautical Twilight 4:46 AM CDT 8:49 PM CDT
Astronomical Twilight 4:08 AM CDT 9:26 PM CDT
Moon 7:11 AM CDT (5/6) 9:41 PM CDT (5/6)
Length of Visible Light 14h 53m
Length of Day
13h 56m
Waxing Crescent, 3% of the Moon is Illuminated
May 6
Waxing Crescent
May 11
First Quarter
May 18
Full
May 26
Last Quarter
Jun 3
New

Hourly Weather History & Observations

Time (CDT) Temp. Dew Point Humidity Pressure Visibility Wind Dir Wind Speed Gust Speed Precip Events Conditions
12:56 AM 55.0 °F 52.0 °F 89% 29.99 in 10.0 mi Calm Calm - N/A   Clear
1:56 AM 53.1 °F 51.1 °F 93% 29.99 in 10.0 mi South 3.5 mph - N/A   Clear
2:56 AM 52.0 °F 51.1 °F 97% 30.01 in 10.0 mi Calm Calm - N/A   Clear
3:56 AM 51.1 °F 50.0 °F 96% 30.03 in 10.0 mi Calm Calm - N/A   Clear
4:56 AM 50.0 °F 48.9 °F 96% 30.04 in 10.0 mi Calm Calm - N/A   Clear
5:56 AM 50.0 °F 48.9 °F 96% 30.05 in 10.0 mi Calm Calm - N/A   Clear
6:56 AM 54.0 °F 51.1 °F 90% 30.08 in 10.0 mi Calm Calm - N/A   Clear
7:56 AM 59.0 °F 53.1 °F 81% 30.09 in 10.0 mi Calm Calm - N/A   Clear
8:56 AM 66.0 °F 54.0 °F 65% 30.09 in 10.0 mi South 4.6 mph - N/A   Clear
9:56 AM 70.0 °F 54.0 °F 57% 30.11 in 10.0 mi SSW 4.6 mph - N/A   Clear
10:56 AM 71.1 °F 52.0 °F 51% 30.11 in 10.0 mi South 4.6 mph - N/A   Clear
11:56 AM 72.0 °F 50.0 °F 46% 30.12 in 10.0 mi Variable 5.8 mph - N/A   Clear
12:56 PM 73.9 °F 51.1 °F 45% 30.09 in 10.0 mi SSW 6.9 mph - N/A   Clear
1:56 PM 75.9 °F 50.0 °F 40% 30.08 in 10.0 mi Variable 4.6 mph - N/A   Clear
2:56 PM 75.0 °F 51.1 °F 43% 30.07 in 10.0 mi South 5.8 mph - N/A   Clear
3:56 PM 75.0 °F 50.0 °F 41% 30.06 in 10.0 mi Calm Calm - N/A   Clear
4:56 PM 75.0 °F 53.1 °F 46% 30.07 in 10.0 mi WSW 4.6 mph - N/A   Clear
5:56 PM 73.9 °F 53.1 °F 48% 30.07 in 10.0 mi WNW 3.5 mph - N/A   Clear
6:56 PM 72.0 °F 55.0 °F 55% 30.07 in 10.0 mi WNW 4.6 mph - N/A   Clear
7:56 PM 70.0 °F 57.0 °F 63% 30.08 in 5.0 mi Calm Calm - N/A   Haze
8:56 PM 64.9 °F 60.1 °F 84% 30.10 in 10.0 mi Calm Calm - N/A   Mostly Cloudy
9:56 PM 64.0 °F 59.0 °F 84% 30.10 in 10.0 mi Calm Calm - N/A   Mostly Cloudy
10:56 PM 63.0 °F 59.0 °F 87% 30.09 in 10.0 mi Calm Calm - N/A   Clear
11:56 PM 61.0 °F 57.0 °F 87% 30.08 in 10.0 mi Calm Calm - N/A   Clear